[[{"header":{"parameterUnit":"m.s-1","parameterCategory":2,"la1":30.2991,"la2":30.254,"lo1":-89.0895,"lo2":-89.0444,"dy":0.0017,"dx":0.0017,"nx":28,"ny":28,"refTime":"2024-07-18T03:00:00:Z","depth":"0","parameterNumber":2,"parameterNumberName":"U-component_of_CURRENTS"},"data":[0,0,0,0,0,0,0,0,0,0,0,0,0,0,0,0,0,0,0,0,0,0,0,0,0,0,0,0,0,0,0,0,0,0,0,0,0,0,0,0,0,0,0,0,0,0,0,0,0,0,0,0,0,0,0,0,0,0,0.1188,0.1187,0,0.1091,0.1089,0.1088,0.1032,0.1032,0.1032,0.1032,0.0967,0.0966,0.0964,0,0,0,0,0,0,0,0,0,0,0,0,0,0.125,0.1249,0.1188,0.1187,0.1186,0.1091,0.1089,0.1088,0.1032,0.1032,0.1032,0.1032,0.0968,0.0966,0.0964,0,0,0,0,0,0,0,0,0,0,0,0,0,0.1193,0.1249,0.1188,0.1148,0.1144,0.1091,0.1089,0.1087,0.1032,0.1032,0.1032,0.1032,0.0969,0.0966,0.0964,0.0948,0,0,0.0956,0.0955,0,0,0,0,0,0,0,0,0.1196,0.1191,0.1155,0.1151,0.1146,0.1075,0.1087,0.1043,0.1032,0.1072,0.1032,0.1032,0.1008,0.1002,0.098,0.0945,0.0943,0.0956,0.0954,0.0953,0.0952,0,0,0,0,0,0,0,0.12,0.1194,0.1147,0.1154,0.1149,0.1109,0.1102,0.1078,0.104,0.1069,0.1065,0.1057,0.1005,0.0983,0.0979,0.0942,0.0956,0.0953,0.0952,0.0951,0.0921,0.0922,0,0,0,0,0,0,0.1221,0.1198,0.115,0.1145,0.1174,0.1109,0.11,0.1096,0.104,0.1031,0.1058,0.1055,0.0987,0.0982,0.0976,0.1036,0.0953,0.0951,0.0949,0.0921,0.0921,0.0922,0,0,0,0,0,0,0.1223,0.1218,0.1154,0.117,0.116,0.1109,0.1104,0.1094,0.1083,0.1031,0.1023,0.1058,0.0987,0.098,0.0966,0.103,0.095,0.0947,0.092,0.0921,0.0922,0.1105,0,0,0,0,0,0,0.1225,0.1219,0.1231,0.1172,0.116,0.1152,0.1104,0.1093,0.1079,0.1075,0.1029,0.1022,0.0986,0.097,0.0963,0.1025,0.0945,0.0919,0.092,0.0921,0.1098,0.1112,0.1124,0,0,0,0,0,0.1227,0.1253,0.1232,0.1226,0.1176,0.1154,0.1145,0.1105,0.108,0.1091,0.1048,0.1024,0.0974,0.0968,0.096,0.1024,0.0918,0.092,0.0921,0.1092,0.1109,0.1124,0,0,0,0,0,0,0.1279,0.1248,0.1224,0.1236,0.1208,0.1146,0.1158,0.1117,0.1089,0.1091,0.1029,0.102,0.1028,0.0988,0.0983,0.1012,0.0944,0.0944,0.1076,0.1092,0.1105,0.1223,0.0943,0,0,0,0,0,0.1297,0.1316,0.1266,0.1278,0.1273,0.1214,0.1202,0.1174,0.1136,0.1123,0.1084,0.1047,0.1026,0.1029,0.0993,0.1016,0.1122,0.1047,0.1061,0.1072,0.1159,0.1351,0.1394,0.0928,0.0928,0.0928,0,0,0.1316,0.1306,0.1313,0.1292,0.1269,0.1289,0.1208,0.1208,0.1232,0.1123,0.1147,0.1086,0.1033,0.1054,0.1057,0.1037,0.1262,0.1075,0.1086,0.1168,0.1359,0.1406,0.1447,0.0929,0.0929,0.0928,0,0,0.1385,0.1363,0.1408,0.1401,0.1385,0.1353,0.136,0.131,0.1302,0.1303,0.1231,0.1226,0.1176,0.1176,0.1164,0.123,0.1311,0.1192,0.1385,0.1568,0.1612,0.1652,0.1881,0.194,0.1219,0.1219,0.1219,0,0.1407,0.1453,0.1416,0.1461,0.1466,0.1394,0.1438,0.1428,0.1378,0.1398,0.1342,0.1327,0.1258,0.1335,0.1349,0.1274,0.1413,0.1333,0.16,0.164,0.1678,0.1903,0.1966,0.1228,0.1227,0.1226,0.1225,0,0.1508,0.1546,0.1576,0.1612,0.1616,0.164,0.1618,0.1625,0.1595,0.159,0.1642,0.1569,0.1586,0.1538,0.1469,0.1672,0.1698,0.1588,0.1588,0.1739,0.1963,0.2025,0.1241,0.1238,0.1235,0.1233,0,0,0.1535,0.1628,0.1636,0.1673,0.1694,0.1696,0.1765,0.1799,0.1863,0.1852,0.1966,0.1922,0.1912,0.1901,0.182,0.1966,0.2314,0.1918,0.1923,0.2201,0.2814,0.2805,0.2872,0.2273,0.2284,0.2292,0.288,0,0.1615,0.1729,0.1756,0.1847,0.189,0.1875,0.1944,0.1977,0.1998,0.2092,0.2103,0.216,0.2046,0.2061,0.2208,0.2246,0.2482,0.2171,0.258,0.2595,0.2614,0.2944,0.2829,0.3341,0.294,0.2951,0.2958,0,0.1694,0.1759,0.187,0.1958,0.1977,0.2025,0.2109,0.2164,0.2291,0.233,0.245,0.2453,0.2643,0.2507,0.2868,0.2687,0.2827,0.2884,0.2905,0.2895,0.2704,0.3111,0.3469,0.3367,0.3054,0.3046,0.3039,0,0.1705,0.1827,0.1913,0.1942,0.204,0.2087,0.2131,0.2235,0.2314,0.2506,0.2608,0.2819,0.2925,0.3151,0.3243,0.3121,0.3662,0.3483,0.3656,0.3656,0.3643,0.3624,0.4002,0.3871,0.387,0.3868,0.3867,0,0.1764,0.1828,0.1923,0.1965,0.2059,0.2119,0.2243,0.2312,0.2489,0.2637,0.2744,0.2919,0.3099,0.3355,0.3463,0.3793,0.3874,0.3844,0.3856,0.3696,0.3676,0.364,0.3546,0.389,0.3885,0.3881,0.3877,0,0.1774,0.1839,0.1929,0.2038,0.2066,0.2127,0.2272,0.2396,0.2539,0.2753,0.2839,0.3106,0.3451,0.364,0.4008,0.4071,0.4272,0.4434,0.4256,0.4237,0.4252,0.417,0.4453,0.4332,0.4813,0.4817,0.4821,0,0.1805,0.1857,0.1953,0.2014,0.2065,0.2165,0.2263,0.2401,0.2539,0.2851,0.2984,0.3358,0.3611,0.4175,0.4376,0.4734,0.4491,0.4816,0.4541,0.4399,0.4317,0.403,0.3881,0.4628,0.4629,0.463,0.4631,0,0.1864,0.1887,0.1962,0.2083,0.2173,0.2261,0.2399,0.2495,0.2698,0.2889,0.3195,0.3424,0.3936,0.4248,0.4665,0.4823,0.459,0.4854,0.4772,0.4336,0.3996,0.3827,0.4104,0.4642,0.4641,0.464,0.464,0.4639,0.1916,0.1973,0.2087,0.2201,0.228,0.2378,0.2449,0.2606,0.2798,0.3064,0.3277,0.3605,0.403,0.46,0.4722,0.4879,0.4749,0.4808,0.4782,0.455,0.4252,0.4587,0.5037,0.5038,0.5039,0.504,0.5041,0,0.2072,0.2141,0.2228,0.2347,0.2434,0.2452,0.2582,0.2656,0.2843,0.3096,0.3338,0.381,0.4176,0.4481,0.4827,0.4802,0.452,0.4724,0.4298,0.4194,0.4622,0.442,0.4672,0.4672,0.4672,0.4672,0.4672,0.4672,0.2184,0.2319,0.2358,0.2504,0.2553,0.2633,0.2684,0.2756,0.2904,0.3182,0.3434,0.3647,0.4087,0.4568,0.4709,0.4659,0.4317,0.422,0.415,0.4432,0.4432,0.4432,0.4222,0.4429,0.4429,0.3509,0.3503,0.3498]},{"header":{"parameterUnit":"m.s-1","parameterCategory":2,"la1":30.2991,"la2":30.254,"lo1":-89.0895,"lo2":-89.0444,"dy":0.0017,"dx":0.0017,"nx":28,"ny":28,"refTime":"2024-07-18T03:00:00:Z","depth":"0","parameterNumber":3,"parameterNumberName":"V-component_of_CURRENTS"},"data":[0,0,0,0,0,0,0,0,0,0,0,0,0,0,0,0,0,0,0,0,0,0,0,0,0,0,0,0,0,0,0,0,0,0,0,0,0,0,0,0,0,0,0,0,0,0,0,0,0,0,0,0,0,0,0,0,0,0,-0.0737,-0.0736,0,-0.0646,-0.0645,-0.0644,-0.0627,-0.0628,-0.0628,-0.0629,-0.0686,-0.0687,-0.0688,0,0,0,0,0,0,0,0,0,0,0,0,0,-0.085,-0.0848,-0.0737,-0.0736,-0.0735,-0.0646,-0.0645,-0.0644,-0.0627,-0.0628,-0.0628,-0.0629,-0.0686,-0.0687,-0.0688,0,0,0,0,0,0,0,0,0,0,0,0,0,-0.0786,-0.0848,-0.0737,-0.0714,-0.0711,-0.0646,-0.0645,-0.0644,-0.0627,-0.0628,-0.0629,-0.0629,-0.0685,-0.0687,-0.0688,-0.068,0,0,-0.0693,-0.0693,0,0,0,0,0,0,0,0,-0.079,-0.0782,-0.0719,-0.0716,-0.0712,-0.0647,-0.0705,-0.0663,-0.0627,-0.0661,-0.0629,-0.063,-0.0685,-0.0686,-0.0668,-0.0683,-0.0686,-0.0693,-0.0694,-0.0694,-0.0695,0,0,0,0,0,0,0,-0.0794,-0.0785,-0.0703,-0.0717,-0.0713,-0.0692,-0.0684,-0.0696,-0.0673,-0.0658,-0.0656,-0.0643,-0.0685,-0.0666,-0.067,-0.0686,-0.0693,-0.0694,-0.0695,-0.0696,-0.075,-0.075,0,0,0,0,0,0,-0.0803,-0.079,-0.0706,-0.07,-0.0751,-0.0689,-0.0681,-0.0669,-0.067,-0.0669,-0.0642,-0.0642,-0.0663,-0.0668,-0.0672,-0.0679,-0.0694,-0.0696,-0.0697,-0.0749,-0.075,-0.0751,0,0,0,0,0,0,-0.0805,-0.0796,-0.0709,-0.0741,-0.0729,-0.0687,-0.0673,-0.0666,-0.0651,-0.0656,-0.0659,-0.0634,-0.0664,-0.067,-0.0687,-0.0681,-0.0696,-0.0698,-0.0749,-0.075,-0.075,-0.0683,0,0,0,0,0,0,-0.0809,-0.0798,-0.0798,-0.0742,-0.0727,-0.0664,-0.0671,-0.0664,-0.0641,-0.064,-0.065,-0.0656,-0.0665,-0.0685,-0.0689,-0.0683,-0.0699,-0.0748,-0.0749,-0.075,-0.0685,-0.0682,-0.0679,0,0,0,0,0,-0.0814,-0.0802,-0.0798,-0.0788,-0.0727,-0.0663,-0.0653,-0.0628,-0.064,-0.0621,-0.0641,-0.0656,-0.0695,-0.0686,-0.0691,-0.0685,-0.0748,-0.0749,-0.075,-0.0686,-0.0682,-0.0679,0,0,0,0,0,0,-0.0846,-0.0797,-0.0792,-0.0766,-0.0718,-0.0659,-0.064,-0.0628,-0.0624,-0.0635,-0.0654,-0.0659,-0.0671,-0.0696,-0.0686,-0.0709,-0.0727,-0.073,-0.0678,-0.0674,-0.0671,-0.0602,-0.07,0,0,0,0,0,-0.0854,-0.0834,-0.078,-0.0757,-0.0735,-0.0692,-0.0668,-0.0646,-0.0629,-0.0626,-0.0634,-0.0659,-0.0677,-0.069,-0.0704,-0.0714,-0.067,-0.072,-0.0717,-0.0714,-0.0664,-0.0624,-0.061,-0.0755,-0.0755,-0.0755,0,0,-0.0857,-0.0829,-0.0816,-0.0762,-0.0726,-0.0674,-0.0679,-0.0633,-0.06,-0.0638,-0.0615,-0.0643,-0.0678,-0.0683,-0.0692,-0.0704,-0.0646,-0.0715,-0.0712,-0.0663,-0.0623,-0.0608,-0.0595,-0.0755,-0.0755,-0.0755,0,0,-0.083,-0.0828,-0.0792,-0.0751,-0.0694,-0.0667,-0.0656,-0.0601,-0.0592,-0.0573,-0.0599,-0.0616,-0.0642,-0.0651,-0.0666,-0.066,-0.0629,-0.0687,-0.0614,-0.0577,-0.0563,-0.055,-0.0442,-0.042,-0.0689,-0.0689,-0.0689,0,-0.0831,-0.0783,-0.077,-0.0716,-0.0676,-0.0663,-0.0603,-0.0587,-0.0548,-0.0519,-0.0564,-0.0555,-0.0617,-0.0587,-0.0605,-0.0647,-0.0593,-0.0621,-0.0567,-0.0554,-0.0541,-0.0434,-0.041,-0.0686,-0.0686,-0.0687,-0.0687,0,-0.0764,-0.0727,-0.0699,-0.0634,-0.0595,-0.0542,-0.051,-0.0484,-0.0488,-0.0452,-0.042,-0.0478,-0.0452,-0.0511,-0.0566,-0.0515,-0.0489,-0.0561,-0.056,-0.0522,-0.0412,-0.0388,-0.0682,-0.0683,-0.0684,-0.0684,0,0,-0.0739,-0.0667,-0.0653,-0.0602,-0.0547,-0.0492,-0.0455,-0.0381,-0.0295,-0.032,-0.0202,-0.0305,-0.0294,-0.0311,-0.0373,-0.038,-0.0289,-0.0435,-0.0435,-0.0296,-0.013,-0.0135,-0.011,-0.0348,-0.0344,-0.0342,-0.0073,0,-0.0679,-0.0576,-0.056,-0.0453,-0.039,-0.0371,-0.0308,-0.0248,-0.0203,-0.009,-0.0143,-0.0065,-0.0229,-0.0192,-0.0228,-0.0247,-0.0229,-0.0349,-0.0212,-0.0206,-0.0193,-0.0085,-0.0137,0.0095,-0.005,-0.0046,-0.0043,0,-0.0599,-0.0542,-0.0438,-0.0328,-0.0294,-0.0232,-0.0094,-0.0031,0.0093,0.0143,0.0202,0.0208,0.0233,0.007,0.0088,0.0028,-0.0036,-0.0085,-0.0077,-0.0079,-0.0169,0.0021,0.0143,-0.0147,-0.0007,-0.001,-0.0012,0,-0.0552,-0.0446,-0.0364,-0.0327,-0.021,-0.0149,-0.0078,0.0052,0.0179,0.0333,0.047,0.049,0.0561,0.0473,0.0354,0.0249,0.0394,0.0238,0.0189,0.0191,0.0179,0.0173,0.0064,0.0253,0.0252,0.0252,0.0251,0,-0.0475,-0.0394,-0.0327,-0.0269,-0.0114,-0.0068,0.0136,0.0218,0.0417,0.0626,0.0616,0.079,0.0656,0.0704,0.0531,0.0492,0.0548,0.0275,0.0267,0.02,0.0193,-0.0038,-0.0205,0.0262,0.0259,0.0258,0.0256,0,-0.0386,-0.0368,-0.024,-0.0128,-0.008,0.0049,0.0283,0.0467,0.0604,0.0887,0.096,0.1092,0.1152,0.1035,0.0961,0.0768,0.0547,0.0636,0.0608,0.0588,0.0211,0.0052,0.0071,-0.0086,0.0661,0.0662,0.0663,0,-0.0308,-0.0245,-0.0121,-0.0005,0.0064,0.0247,0.0415,0.0562,0.0771,0.1068,0.1237,0.1385,0.1511,0.1467,0.1178,0.1008,0.0665,0.08,0.0531,0.025,0.0067,-0.0038,-0.0183,0.0572,0.0572,0.0572,0.0573,0,-0.0109,-0.009,0.002,0.0211,0.038,0.0574,0.0799,0.0965,0.1168,0.1384,0.167,0.1792,0.1754,0.1597,0.1348,0.1136,0.0572,0.0799,0.0504,0.0014,-0.0096,-0.0272,0.0376,0.0576,0.0576,0.0576,0.0575,0.0575,0.0087,0.0197,0.0325,0.0508,0.0683,0.0899,0.1055,0.1279,0.1555,0.1848,0.195,0.2164,0.1899,0.1561,0.1229,0.0601,0.0592,0.0334,0.0191,0.0134,-0.0121,0.0572,0.073,0.073,0.073,0.0731,0.0731,0,0.0384,0.047,0.0646,0.0843,0.1026,0.1059,0.1332,0.147,0.1733,0.2026,0.2235,0.2329,0.1853,0.1361,0.0576,0.0079,-0.0173,-0.0207,-0.0429,-0.0539,0.0089,-0.0033,-0.0031,-0.003,-0.003,-0.003,-0.003,-0.0029,0.058,0.0776,0.0808,0.1116,0.1233,0.1446,0.1566,0.1743,0.1959,0.2313,0.2541,0.2704,0.244,0.0902,-0.0258,-0.057,-0.0993,-0.0991,-0.1198,-0.0877,-0.0841,-0.0807,-0.0965,-0.1158,-0.116,-0.1822,-0.1829,-0.1834]}],[{"header":{"parameterUnit":"m.s-1","parameterCategory":2,"la1":30.2991,"la2":30.254,"lo1":-89.0895,"lo2":-89.0444,"dy":0.0017,"dx":0.0017,"nx":28,"ny":28,"refTime":"2024-07-18T03:00:00:Z","depth":"2","parameterNumber":2,"parameterNumberName":"U-component_of_CURRENTS"},"data":[0,0,0,0,0,0,0,0,0,0,0,0,0,0,0,0,0,0,0,0,0,0,0,0,0,0,0,0,0,0,0,0,0,0,0,0,0,0,0,0,0,0,0,0,0,0,0,0,0,0,0,0,0,0,0,0,0,0,0.1348,0.1348,0,0.136,0.136,0.136,0.1332,0.1331,0.133,0.133,0.1333,0.1334,0.1334,0,0,0,0,0,0,0,0,0,0,0,0,0,0.1291,0.1292,0.1348,0.1348,0.1349,0.136,0.136,0.136,0.1332,0.1331,0.133,0.1329,0.1333,0.1334,0.1334,0,0,0,0,0,0,0,0,0,0,0,0,0,0.1309,0.1293,0.1348,0.1337,0.1337,0.136,0.136,0.136,0.1332,0.1331,0.133,0.1329,0.1332,0.1333,0.1335,0.1363,0,0,0.1338,0.1338,0,0,0,0,0,0,0,0,0.1308,0.1311,0.1339,0.1338,0.1338,0.1345,0.1342,0.1361,0.1332,0.1332,0.133,0.1328,0.1338,0.1339,0.1341,0.1363,0.1363,0.1338,0.1339,0.1339,0.134,0,0,0,0,0,0,0,0.1307,0.131,0.1351,0.1339,0.1339,0.133,0.1331,0.1345,0.1339,0.1332,0.133,0.1335,0.1338,0.134,0.1341,0.1363,0.1338,0.1339,0.134,0.134,0.1447,0.1449,0,0,0,0,0,0,0.1312,0.1309,0.135,0.1351,0.1322,0.1332,0.1333,0.1342,0.1339,0.1338,0.1336,0.1334,0.1338,0.1339,0.1341,0.1409,0.1339,0.134,0.1341,0.1445,0.1448,0.145,0,0,0,0,0,0,0.131,0.1315,0.135,0.1332,0.1336,0.1334,0.1345,0.1343,0.1346,0.1343,0.1341,0.1341,0.1338,0.1339,0.1364,0.1407,0.1341,0.1342,0.1442,0.1446,0.1449,0.1523,0,0,0,0,0,0,0.1309,0.1315,0.1325,0.1332,0.1337,0.1375,0.1346,0.1344,0.1352,0.1349,0.1347,0.1346,0.1337,0.1363,0.1365,0.1407,0.1343,0.144,0.1444,0.1448,0.1518,0.1528,0.1537,0,0,0,0,0,0.1307,0.1329,0.1326,0.1331,0.1351,0.1377,0.1379,0.1372,0.1353,0.1367,0.1364,0.1346,0.1391,0.1365,0.1368,0.1411,0.1438,0.1443,0.1447,0.1513,0.1526,0.1537,0,0,0,0,0,0,0.1313,0.1329,0.1325,0.1352,0.1367,0.1373,0.1387,0.1378,0.1386,0.1382,0.1368,0.1368,0.1408,0.1402,0.1374,0.1456,0.1414,0.142,0.1463,0.1475,0.1485,0.15,0.1344,0,0,0,0,0,0.132,0.1339,0.1353,0.1375,0.1385,0.1386,0.1395,0.1392,0.14,0.1401,0.1399,0.1408,0.1432,0.1445,0.1459,0.1502,0.153,0.1535,0.1544,0.1553,0.1568,0.1646,0.1664,0.1466,0.1466,0.1466,0,0,0.1328,0.134,0.135,0.1378,0.1387,0.1418,0.1388,0.1411,0.1437,0.1403,0.1435,0.1439,0.145,0.1498,0.1517,0.1497,0.1629,0.1559,0.1566,0.1577,0.1653,0.1672,0.1689,0.1469,0.1469,0.1468,0,0,0.1358,0.1367,0.1393,0.1413,0.1437,0.1444,0.1453,0.1466,0.1471,0.1507,0.1493,0.1525,0.155,0.1575,0.1589,0.1665,0.1675,0.167,0.1735,0.181,0.1827,0.1843,0.1922,0.1944,0.1678,0.1678,0.1678,0,0.1365,0.1401,0.1406,0.1441,0.1463,0.1459,0.1496,0.1512,0.153,0.1547,0.1528,0.159,0.1594,0.1666,0.1694,0.1688,0.1733,0.1686,0.1824,0.1839,0.1854,0.1931,0.1954,0.1682,0.1682,0.1682,0.1681,0,0.1417,0.1447,0.1468,0.1509,0.1536,0.1568,0.1592,0.1617,0.1621,0.1633,0.1693,0.1705,0.1748,0.1757,0.175,0.1856,0.1857,0.1824,0.1792,0.1878,0.1955,0.1977,0.1688,0.1687,0.1686,0.1685,0,0,0.1424,0.1489,0.1497,0.1522,0.1573,0.1596,0.1654,0.1702,0.1742,0.1764,0.1829,0.187,0.1875,0.1894,0.1895,0.1955,0.2097,0.1941,0.1943,0.2019,0.2283,0.2181,0.2196,0.209,0.2094,0.2097,0.2303,0,0.1459,0.1527,0.1557,0.1622,0.1655,0.1684,0.1739,0.1783,0.1818,0.1883,0.1909,0.197,0.1929,0.1966,0.2024,0.2081,0.2158,0.2046,0.219,0.2195,0.2092,0.2219,0.2043,0.2201,0.2325,0.2328,0.2331,0,0.1497,0.1537,0.1603,0.1671,0.1691,0.1732,0.1815,0.1871,0.1959,0.1994,0.2059,0.2079,0.2185,0.2131,0.2287,0.2221,0.227,0.2301,0.2309,0.2202,0.2135,0.2133,0.2237,0.2368,0.2365,0.2363,0.236,0,0.1485,0.1566,0.1614,0.1639,0.1721,0.1759,0.1812,0.1898,0.1948,0.208,0.2134,0.2238,0.2311,0.2388,0.2439,0.2393,0.2601,0.2543,0.25,0.2494,0.2366,0.234,0.2667,0.2667,0.2667,0.2666,0.2665,0,0.1504,0.1541,0.1609,0.1635,0.1701,0.1764,0.1844,0.192,0.2026,0.2118,0.2193,0.2288,0.238,0.2482,0.2519,0.2587,0.2675,0.255,0.2551,0.2386,0.2361,0.2504,0.2483,0.2674,0.2672,0.267,0.2669,0,0.1483,0.1529,0.1584,0.1667,0.1694,0.1745,0.1846,0.1905,0.2021,0.2155,0.2206,0.2363,0.2517,0.2575,0.2729,0.2685,0.2759,0.2753,0.2551,0.2522,0.2591,0.2571,0.2762,0.276,0.2759,0.2758,0.2757,0,0.1477,0.1502,0.1588,0.1615,0.1651,0.1726,0.1778,0.1896,0.1976,0.2201,0.2277,0.2451,0.2561,0.2721,0.2706,0.2761,0.2789,0.2606,0.2465,0.2625,0.2607,0.2589,0.2571,0.2352,0.2348,0.2345,0.2342,0,0.1454,0.1483,0.1522,0.1584,0.1634,0.1692,0.179,0.1839,0.2017,0.2126,0.2314,0.2418,0.2579,0.2564,0.2599,0.2587,0.2575,0.2533,0.281,0.2318,0.2245,0.2223,0.2219,0.2311,0.2314,0.2316,0.2318,0.2319,0.1419,0.1439,0.1484,0.1531,0.1593,0.1645,0.1674,0.179,0.1894,0.2039,0.2212,0.23,0.2389,0.2334,0.2315,0.2281,0.242,0.2324,0.2333,0.2347,0.2225,0.2149,0.2178,0.218,0.2182,0.2183,0.2185,0,0.1358,0.1386,0.1426,0.1479,0.1509,0.1573,0.1667,0.1682,0.1778,0.1925,0.2024,0.1899,0.1937,0.2035,0.1949,0.1948,0.1903,0.1879,0.1831,0.1865,0.1893,0.1745,0.1573,0.1571,0.1569,0.1567,0,0,0.1322,0.1324,0.1339,0.1358,0.1409,0.1433,0.1465,0.1516,0.1606,0.1609,0.1641,0.1772,0.1956,0.1708,0.1712,0.1654,0.173,0.1582,0.208,0.2057,0.2083,0.2166,0.1978,0,0,0,0,0]},{"header":{"parameterUnit":"m.s-1","parameterCategory":2,"la1":30.2991,"la2":30.254,"lo1":-89.0895,"lo2":-89.0444,"dy":0.0017,"dx":0.0017,"nx":28,"ny":28,"refTime":"2024-07-18T03:00:00:Z","depth":"2","parameterNumber":3,"parameterNumberName":"V-component_of_CURRENTS"},"data":[0,0,0,0,0,0,0,0,0,0,0,0,0,0,0,0,0,0,0,0,0,0,0,0,0,0,0,0,0,0,0,0,0,0,0,0,0,0,0,0,0,0,0,0,0,0,0,0,0,0,0,0,0,0,0,0,0,0,-0.0475,-0.0475,0,-0.0444,-0.0443,-0.0443,-0.0414,-0.0414,-0.0414,-0.0414,-0.0364,-0.0363,-0.0362,0,0,0,0,0,0,0,0,0,0,0,0,0,-0.0516,-0.0515,-0.0475,-0.0475,-0.0475,-0.0444,-0.0443,-0.0443,-0.0414,-0.0414,-0.0414,-0.0414,-0.0365,-0.0363,-0.0362,0,0,0,0,0,0,0,0,0,0,0,0,0,-0.0491,-0.0515,-0.0475,-0.0458,-0.0456,-0.0444,-0.0443,-0.0443,-0.0414,-0.0414,-0.0414,-0.0414,-0.0365,-0.0363,-0.0362,-0.0357,0,0,-0.0356,-0.0356,0,0,0,0,0,0,0,0,-0.0493,-0.049,-0.0461,-0.0459,-0.0457,-0.0434,-0.044,-0.0413,-0.0414,-0.0428,-0.0414,-0.0413,-0.0387,-0.0384,-0.0376,-0.0354,-0.0352,-0.0356,-0.0355,-0.0354,-0.0354,0,0,0,0,0,0,0,-0.0494,-0.0491,-0.0461,-0.0461,-0.0459,-0.0454,-0.045,-0.0435,-0.0408,-0.0427,-0.0426,-0.0425,-0.0386,-0.0378,-0.0375,-0.0351,-0.0356,-0.0355,-0.0354,-0.0353,-0.0309,-0.0309,0,0,0,0,0,0,-0.0502,-0.0492,-0.0462,-0.046,-0.0477,-0.0454,-0.0449,-0.044,-0.0409,-0.0404,-0.0425,-0.0424,-0.0381,-0.0377,-0.0373,-0.034,-0.0355,-0.0353,-0.0352,-0.0309,-0.0309,-0.0309,0,0,0,0,0,0,-0.0503,-0.0499,-0.0463,-0.0478,-0.0473,-0.0453,-0.0444,-0.044,-0.0428,-0.0408,-0.0402,-0.0417,-0.0381,-0.0375,-0.0352,-0.0339,-0.0352,-0.0351,-0.0309,-0.0309,-0.0309,-0.029,0,0,0,0,0,0,-0.0504,-0.0499,-0.0494,-0.0478,-0.0472,-0.0447,-0.0444,-0.044,-0.043,-0.0427,-0.0399,-0.0395,-0.038,-0.0355,-0.0351,-0.0337,-0.0349,-0.0309,-0.0309,-0.0309,-0.0291,-0.0289,-0.0288,0,0,0,0,0,-0.0505,-0.0489,-0.0493,-0.049,-0.0466,-0.0447,-0.0443,-0.0428,-0.0429,-0.0418,-0.0403,-0.0395,-0.0351,-0.0353,-0.0348,-0.0334,-0.0309,-0.0309,-0.0309,-0.0292,-0.029,-0.0288,0,0,0,0,0,0,-0.0494,-0.0484,-0.0489,-0.0468,-0.046,-0.0442,-0.0431,-0.0428,-0.0408,-0.0406,-0.039,-0.0384,-0.036,-0.0353,-0.0357,-0.0322,-0.033,-0.0329,-0.0319,-0.0317,-0.0316,-0.0321,-0.0348,0,0,0,0,0,-0.0495,-0.0482,-0.0476,-0.0459,-0.0457,-0.0448,-0.044,-0.0432,-0.0415,-0.0406,-0.0388,-0.0372,-0.0355,-0.0342,-0.0326,-0.0305,-0.0331,-0.0295,-0.0293,-0.0292,-0.0294,-0.0332,-0.0335,-0.0308,-0.0308,-0.0308,0,0,-0.0484,-0.0479,-0.047,-0.0457,-0.0451,-0.043,-0.0441,-0.0425,-0.0403,-0.0404,-0.0368,-0.0366,-0.035,-0.0324,-0.0313,-0.0315,-0.0314,-0.0291,-0.029,-0.0293,-0.0332,-0.0335,-0.0338,-0.0307,-0.0307,-0.0307,0,0,-0.0451,-0.0457,-0.0435,-0.0428,-0.0421,-0.0416,-0.0413,-0.0399,-0.0389,-0.0363,-0.036,-0.0356,-0.0319,-0.0312,-0.0303,-0.0287,-0.0308,-0.0279,-0.0269,-0.0306,-0.0309,-0.0311,-0.0353,-0.036,-0.0275,-0.0275,-0.0275,0,-0.0439,-0.041,-0.0424,-0.0403,-0.0391,-0.0408,-0.0378,-0.0372,-0.035,-0.0345,-0.0346,-0.0323,-0.0314,-0.0295,-0.0288,-0.0283,-0.0311,-0.0274,-0.0305,-0.0308,-0.0311,-0.0353,-0.0361,-0.0274,-0.0274,-0.0274,-0.0274,0,-0.0386,-0.0368,-0.0355,-0.0334,-0.0327,-0.0305,-0.0306,-0.0301,-0.0301,-0.0297,-0.0287,-0.0288,-0.0277,-0.0275,-0.0272,-0.0283,-0.0299,-0.0302,-0.031,-0.0313,-0.0357,-0.0365,-0.0272,-0.0273,-0.0273,-0.0273,0,0,-0.0333,-0.0319,-0.0312,-0.0295,-0.0289,-0.0272,-0.0257,-0.0245,-0.023,-0.0238,-0.0218,-0.022,-0.0243,-0.0237,-0.0246,-0.0278,-0.0327,-0.0297,-0.0299,-0.034,-0.0418,-0.0443,-0.0455,-0.0338,-0.0339,-0.034,-0.0441,0,-0.0281,-0.0228,-0.0238,-0.0188,-0.016,-0.0186,-0.0166,-0.0167,-0.0169,-0.0158,-0.0195,-0.0173,-0.0221,-0.0208,-0.0259,-0.0291,-0.0347,-0.03,-0.0407,-0.0411,-0.0435,-0.0465,-0.0407,-0.0494,-0.045,-0.0451,-0.0452,0,-0.0215,-0.019,-0.0135,-0.0115,-0.0107,-0.0086,-0.0071,-0.0054,-0.0068,-0.0069,-0.0094,-0.0116,-0.0153,-0.0192,-0.0305,-0.0272,-0.0354,-0.0402,-0.0407,-0.0443,-0.0451,-0.0483,-0.0511,-0.0466,-0.0465,-0.0464,-0.0463,0,-0.0155,-0.0115,-0.007,-0.006,-0.0044,-0.0031,-0.0021,-0.0026,0.0003,-0.0007,0.0013,-0.006,-0.0059,-0.0186,-0.0303,-0.03,-0.0438,-0.0442,-0.0557,-0.056,-0.0539,-0.0538,-0.0555,-0.0555,-0.0555,-0.0554,-0.0554,0,-0.0089,-0.005,-0.0039,-0.0012,0.0041,0.0027,0.0078,0.0076,0.0092,0.0143,0.0065,0.0085,-0.0056,-0.015,-0.0291,-0.0452,-0.044,-0.057,-0.0592,-0.0531,-0.0528,-0.052,-0.0515,-0.0558,-0.0557,-0.0557,-0.0556,0,-0.0026,-0.0019,0.0035,0.0059,0.0072,0.0112,0.0158,0.0194,0.0198,0.0263,0.0271,0.0209,0.0084,-0.0096,-0.0276,-0.0406,-0.057,-0.064,-0.0564,-0.0576,-0.0673,-0.0665,-0.0771,-0.0773,-0.0774,-0.0775,-0.0776,0,0.0013,0.0045,0.0093,0.0128,0.0143,0.0196,0.0235,0.0254,0.0305,0.0342,0.0382,0.029,0.0223,-0.0078,-0.031,-0.0578,-0.0617,-0.0699,-0.0691,-0.0686,-0.0697,-0.0687,-0.0677,-0.0658,-0.0658,-0.0658,-0.0658,0,0.0082,0.0093,0.0132,0.0191,0.0241,0.0313,0.0375,0.0432,0.047,0.0519,0.0556,0.0506,0.0243,0.0003,-0.0358,-0.0531,-0.0651,-0.0709,-0.0724,-0.061,-0.0588,-0.0595,-0.0588,-0.0658,-0.0658,-0.0658,-0.0658,-0.0658,0.0127,0.0158,0.0188,0.0245,0.0318,0.0406,0.0491,0.0557,0.0642,0.0719,0.0662,0.0609,0.0345,-0.0104,-0.038,-0.065,-0.067,-0.0756,-0.0752,-0.0749,-0.0716,-0.0698,-0.0783,-0.0784,-0.0784,-0.0785,-0.0785,0,0.0149,0.0175,0.0235,0.0304,0.0394,0.0437,0.0569,0.0652,0.077,0.0809,0.0819,0.0568,0.028,-0.002,-0.0403,-0.0664,-0.0657,-0.0743,-0.0666,-0.0666,-0.0666,-0.0625,-0.067,-0.067,-0.067,-0.067,0,0,0.0157,0.0186,0.02,0.0328,0.0423,0.0585,0.0688,0.0801,0.0871,0.0891,0.0875,0.0746,0.0387,0.0132,-0.0221,-0.0425,-0.0478,-0.0467,-0.0537,-0.0405,-0.04,-0.0659,-0.0595,0,0,0,0,0]}],[{"header":{"parameterUnit":"m.s-1","parameterCategory":2,"la1":30.2991,"la2":30.254,"lo1":-89.0895,"lo2":-89.0444,"dy":0.0017,"dx":0.0017,"nx":28,"ny":28,"refTime":"2024-07-18T03:00:00:Z","depth":"4","parameterNumber":2,"parameterNumberName":"U-component_of_CURRENTS"},"data":[0,0,0,0,0,0,0,0,0,0,0,0,0,0,0,0,0,0,0,0,0,0,0,0,0,0,0,0,0,0,0,0,0,0,0,0,0,0,0,0,0,0,0,0,0,0,0,0,0,0,0,0,0,0,0,0,0,0,0.0744,0.0744,0,0.0805,0.0805,0.0806,0.0858,0.0859,0.0859,0.086,0.0913,0.0914,0.0915,0,0,0,0,0,0,0,0,0,0,0,0,0,0.0657,0.0659,0.0744,0.0744,0.0745,0.0804,0.0806,0.0807,0.0858,0.0859,0.0859,0.086,0.0912,0.0913,0.0915,0,0,0,0,0,0,0,0,0,0,0,0,0,0.0706,0.0659,0.0743,0.0776,0.078,0.0804,0.0806,0.0807,0.0858,0.0859,0.086,0.086,0.0912,0.0913,0.0915,0.0912,0,0,0.092,0.092,0,0,0,0,0,0,0,0,0.0703,0.0709,0.0771,0.0774,0.0778,0.0823,0.0794,0.0841,0.0858,0.083,0.086,0.086,0.088,0.0884,0.0897,0.0915,0.0917,0.092,0.0921,0.0921,0.0922,0,0,0,0,0,0,0,0.07,0.0707,0.077,0.0772,0.0776,0.0783,0.0791,0.0804,0.0852,0.0833,0.0836,0.084,0.0882,0.0896,0.0899,0.0918,0.092,0.0921,0.0922,0.0923,0.099,0.0991,0,0,0,0,0,0,0.0689,0.0704,0.0768,0.0771,0.0739,0.0784,0.0793,0.0809,0.0853,0.0859,0.0839,0.0842,0.0893,0.0897,0.0901,0.0971,0.0921,0.0923,0.0924,0.0989,0.099,0.0991,0,0,0,0,0,0,0.0687,0.0694,0.0765,0.0736,0.0746,0.0785,0.0803,0.081,0.0846,0.0857,0.0864,0.087,0.0893,0.0899,0.0936,0.0971,0.0923,0.0925,0.0988,0.0989,0.0991,0.1066,0,0,0,0,0,0,0.0684,0.0694,0.0713,0.0736,0.0747,0.0797,0.0802,0.0811,0.0845,0.085,0.0885,0.0889,0.0894,0.0934,0.0937,0.0972,0.0926,0.0987,0.0989,0.099,0.1062,0.1069,0.1075,0,0,0,0,0,0.0681,0.07,0.0714,0.0722,0.077,0.0797,0.0805,0.0834,0.0846,0.0868,0.0893,0.0889,0.0946,0.0936,0.094,0.0976,0.0986,0.0988,0.099,0.1059,0.1068,0.1075,0,0,0,0,0,0,0.0676,0.0707,0.0724,0.0753,0.0782,0.0806,0.0831,0.0845,0.0883,0.0894,0.0904,0.0911,0.0955,0.0949,0.0937,0.0997,0.0964,0.0967,0.1015,0.1023,0.103,0.1022,0.0927,0,0,0,0,0,0.0682,0.0699,0.0735,0.0756,0.0779,0.0809,0.0828,0.0847,0.0875,0.0894,0.0921,0.0943,0.0962,0.0981,0.0996,0.103,0.102,0.1052,0.1059,0.1065,0.106,0.1096,0.1106,0.0997,0.0997,0.0997,0,0,0.068,0.0701,0.0711,0.0755,0.0784,0.0818,0.0824,0.086,0.089,0.0891,0.0954,0.097,0.0975,0.1019,0.1037,0.1023,0.1087,0.1068,0.1073,0.1064,0.1099,0.111,0.1119,0.0999,0.0998,0.0998,0,0,0.0682,0.0716,0.0738,0.0767,0.0812,0.0832,0.0847,0.0894,0.0929,0.0975,0.0986,0.1022,0.1058,0.1075,0.1082,0.113,0.1121,0.1139,0.1174,0.121,0.122,0.1228,0.1216,0.1222,0.1145,0.1145,0.1145,0,0.0685,0.072,0.0748,0.0782,0.0807,0.0842,0.0876,0.0912,0.0965,0.0997,0.1004,0.1072,0.1081,0.1127,0.1146,0.1147,0.1152,0.1148,0.1221,0.1229,0.1236,0.1221,0.1228,0.1149,0.1149,0.1148,0.1148,0,0.0705,0.0742,0.0761,0.0814,0.0844,0.0878,0.0927,0.0975,0.1015,0.1048,0.1118,0.114,0.1184,0.1191,0.1184,0.1243,0.1223,0.1226,0.1204,0.1252,0.1233,0.1238,0.1154,0.1153,0.1152,0.1151,0,0,0.0688,0.0761,0.0772,0.0805,0.0867,0.0893,0.0953,0.1018,0.1064,0.1125,0.1186,0.1228,0.1259,0.1267,0.1278,0.1297,0.1348,0.1289,0.1289,0.1282,0.1404,0.1363,0.1364,0.138,0.1382,0.1383,0.1365,0,0.0703,0.0762,0.0796,0.0854,0.0894,0.0945,0.0991,0.105,0.111,0.1181,0.1224,0.128,0.1284,0.1315,0.1348,0.135,0.1368,0.135,0.1352,0.1351,0.1316,0.1372,0.1388,0.1369,0.137,0.1371,0.1372,0,0.0715,0.0755,0.0813,0.0883,0.0908,0.0947,0.1034,0.1088,0.1183,0.1229,0.1308,0.1342,0.1401,0.1389,0.1438,0.1434,0.1428,0.1413,0.1413,0.1351,0.1322,0.1313,0.1381,0.138,0.1379,0.1379,0.1378,0,0.0681,0.0767,0.081,0.0836,0.0918,0.0964,0.1023,0.1111,0.1168,0.1278,0.1323,0.1401,0.1454,0.1471,0.1483,0.1468,0.151,0.1487,0.1432,0.1427,0.1433,0.1425,0.151,0.151,0.151,0.151,0.151,0,0.0671,0.0708,0.0807,0.0829,0.089,0.0963,0.1039,0.1109,0.1211,0.1276,0.1365,0.1416,0.1484,0.1525,0.1506,0.1501,0.1547,0.1441,0.1434,0.1461,0.1456,0.1436,0.1427,0.151,0.151,0.151,0.151,0,0.0613,0.0676,0.0732,0.0835,0.0873,0.0926,0.1048,0.1103,0.1208,0.1298,0.1336,0.1452,0.1511,0.1549,0.157,0.1535,0.1515,0.1496,0.1509,0.1502,0.1385,0.1381,0.1411,0.141,0.1409,0.1408,0.1407,0,0.0585,0.0606,0.0723,0.0758,0.081,0.0902,0.0958,0.1088,0.1141,0.1302,0.1327,0.1444,0.1506,0.1502,0.1548,0.1526,0.151,0.1476,0.1435,0.1392,0.1382,0.1379,0.1377,0.1406,0.1406,0.1405,0.1405,0,0.0522,0.0567,0.0613,0.0691,0.0763,0.0833,0.0928,0.0964,0.111,0.1214,0.1297,0.1354,0.1431,0.1465,0.1486,0.1459,0.1486,0.1464,0.1464,0.1425,0.1385,0.1376,0.1375,0.1401,0.1402,0.1402,0.1402,0,0.0469,0.0484,0.055,0.0612,0.0691,0.0743,0.0813,0.0892,0.0972,0.1153,0.1178,0.1309,0.1418,0.1431,0.1437,0.1437,0.1398,0.1327,0.1334,0.1339,0.133,0.127,0.1252,0,0,0,0,0,0.0418,0.0424,0.0466,0.0536,0.061,0.0664,0.0771,0.0843,0.099,0.1023,0.1102,0.117,0.1247,0.1307,0.1289,0.1385,0.1385,0.1356,0.1301,0.1381,0.1385,0.1386,0,0,0,0,0,0,0.038,0.041,0.0432,0.0455,0.0493,0.0573,0.0648,0.0755,0.0772,0.0926,0.097,0.109,0.1167,0.1241,0.1263,0.128,0.122,0.1437,0.1434,0.1378,0.1382,0.1386,0.1388,0,0,0,0,0]},{"header":{"parameterUnit":"m.s-1","parameterCategory":2,"la1":30.2991,"la2":30.254,"lo1":-89.0895,"lo2":-89.0444,"dy":0.0017,"dx":0.0017,"nx":28,"ny":28,"refTime":"2024-07-18T03:00:00:Z","depth":"4","parameterNumber":3,"parameterNumberName":"V-component_of_CURRENTS"},"data":[0,0,0,0,0,0,0,0,0,0,0,0,0,0,0,0,0,0,0,0,0,0,0,0,0,0,0,0,0,0,0,0,0,0,0,0,0,0,0,0,0,0,0,0,0,0,0,0,0,0,0,0,0,0,0,0,0,0,-0.0001,-0.0001,0,-0.0048,-0.0049,-0.005,-0.0088,-0.0088,-0.0088,-0.0089,-0.0143,-0.0144,-0.0146,0,0,0,0,0,0,0,0,0,0,0,0,0,0.004,0.004,-0.0001,-0.0001,-0.0002,-0.0048,-0.0049,-0.005,-0.0088,-0.0088,-0.0088,-0.0089,-0.0143,-0.0144,-0.0146,0,0,0,0,0,0,0,0,0,0,0,0,0,0.0008,0.004,-0.0001,-0.0024,-0.0027,-0.0048,-0.0049,-0.005,-0.0088,-0.0088,-0.0088,-0.0089,-0.0142,-0.0144,-0.0146,-0.0153,0,0,-0.0152,-0.0153,0,0,0,0,0,0,0,0,0.001,0.0007,-0.002,-0.0023,-0.0025,-0.006,-0.0055,-0.0084,-0.0088,-0.0067,-0.0089,-0.0089,-0.0114,-0.0119,-0.013,-0.0156,-0.0158,-0.0152,-0.0153,-0.0154,-0.0155,0,0,0,0,0,0,0,0.0013,0.0008,-0.0022,-0.0021,-0.0024,-0.0038,-0.0043,-0.0061,-0.0091,-0.0069,-0.0071,-0.0073,-0.0116,-0.0128,-0.0132,-0.0159,-0.0152,-0.0154,-0.0155,-0.0156,-0.02,-0.02,0,0,0,0,0,0,0.0024,0.0011,-0.0021,-0.0023,-0.0005,-0.0038,-0.0044,-0.0051,-0.0091,-0.0096,-0.0072,-0.0074,-0.0125,-0.013,-0.0134,-0.0152,-0.0154,-0.0156,-0.0157,-0.02,-0.02,-0.02,0,0,0,0,0,0,0.0025,0.0022,-0.0019,-0.0005,-0.0011,-0.0038,-0.0046,-0.0052,-0.0069,-0.0093,-0.0099,-0.0085,-0.0125,-0.0131,-0.0153,-0.0154,-0.0157,-0.0159,-0.02,-0.02,-0.02,-0.0184,0,0,0,0,0,0,0.0027,0.0022,0.002,-0.0004,-0.0011,-0.0031,-0.0046,-0.0052,-0.0068,-0.0071,-0.0105,-0.011,-0.0126,-0.0149,-0.0154,-0.0157,-0.016,-0.02,-0.02,-0.02,-0.0185,-0.0184,-0.0183,0,0,0,0,0,0.0028,0.0028,0.002,0.0016,-0.0014,-0.0031,-0.0036,-0.0058,-0.0069,-0.0076,-0.0098,-0.0109,-0.0153,-0.0151,-0.0157,-0.016,-0.02,-0.02,-0.02,-0.0185,-0.0184,-0.0183,0,0,0,0,0,0,0.0043,0.0023,0.0014,0.0007,-0.001,-0.0037,-0.0045,-0.0059,-0.0084,-0.0088,-0.0112,-0.0119,-0.014,-0.015,-0.0148,-0.0172,-0.0177,-0.0178,-0.0164,-0.0163,-0.0162,-0.0146,-0.0162,0,0,0,0,0,0.0047,0.0043,0.0019,0.0015,0.0004,-0.0022,-0.0032,-0.0046,-0.0068,-0.0079,-0.0102,-0.0124,-0.0144,-0.0153,-0.0173,-0.0186,-0.0214,-0.019,-0.0189,-0.0188,-0.018,-0.0232,-0.0235,-0.02,-0.02,-0.02,0,0,0.0055,0.0043,0.0041,0.0019,0.0,-0.0008,-0.003,-0.0045,-0.005,-0.008,-0.0099,-0.0125,-0.0147,-0.0164,-0.0173,-0.0173,-0.0215,-0.0188,-0.0188,-0.0179,-0.0232,-0.0236,-0.0239,-0.02,-0.02,-0.02,0,0,0.0068,0.0052,0.0049,0.0038,0.0016,0.0001,-0.0003,-0.0032,-0.0048,-0.0066,-0.009,-0.0113,-0.0144,-0.0159,-0.017,-0.0174,-0.0212,-0.0183,-0.0163,-0.0214,-0.0217,-0.0221,-0.027,-0.0278,-0.0178,-0.0178,-0.0178,0,0.0075,0.0072,0.0047,0.0042,0.004,0.0007,0.0007,-0.0013,-0.0043,-0.0054,-0.0068,-0.0121,-0.0139,-0.016,-0.0158,-0.0172,-0.021,-0.0166,-0.0213,-0.0217,-0.0221,-0.0271,-0.028,-0.0177,-0.0177,-0.0177,-0.0177,0,0.0084,0.0085,0.0081,0.0068,0.0059,0.0055,0.003,0.0014,-0.0009,-0.003,-0.0064,-0.0098,-0.0129,-0.0138,-0.0147,-0.0178,-0.02,-0.0211,-0.0217,-0.0224,-0.0276,-0.0286,-0.0176,-0.0176,-0.0177,-0.0177,0,0,0.0087,0.0089,0.0087,0.0093,0.0075,0.0069,0.006,0.004,0.0026,-0.0011,-0.0035,-0.0066,-0.0097,-0.011,-0.0136,-0.0168,-0.0227,-0.0195,-0.0198,-0.0245,-0.035,-0.0315,-0.0322,-0.0256,-0.0257,-0.0258,-0.0379,0,0.0099,0.0113,0.0107,0.012,0.0124,0.0103,0.0099,0.0077,0.0043,0.0008,-0.0035,-0.0071,-0.0084,-0.0108,-0.0143,-0.0213,-0.0251,-0.0194,-0.0335,-0.0339,-0.0308,-0.0331,-0.0262,-0.0386,-0.0389,-0.039,-0.0392,0,0.01,0.0115,0.0138,0.0153,0.0149,0.0151,0.0133,0.0124,0.0072,0.0043,-0.0004,-0.0052,-0.0107,-0.012,-0.0238,-0.0208,-0.027,-0.0319,-0.0326,-0.0301,-0.0321,-0.0377,-0.0409,-0.0408,-0.0407,-0.0405,-0.0404,0,0.0114,0.0132,0.0158,0.0163,0.0171,0.0173,0.0168,0.0132,0.0118,0.0055,0.0027,-0.0053,-0.0101,-0.0191,-0.0284,-0.0277,-0.0417,-0.0428,-0.0455,-0.0454,-0.0457,-0.0452,-0.0507,-0.0507,-0.0506,-0.0506,-0.0506,0,0.0128,0.0144,0.0168,0.0181,0.0196,0.0194,0.0189,0.0167,0.0134,0.0118,0.0042,0.0008,-0.0122,-0.0214,-0.0298,-0.0404,-0.0438,-0.0453,-0.0481,-0.0448,-0.0441,-0.0465,-0.0458,-0.0511,-0.051,-0.0509,-0.0508,0,0.0128,0.0152,0.0174,0.0197,0.0203,0.0206,0.0205,0.0201,0.0168,0.014,0.0121,0.0028,-0.0089,-0.0214,-0.0367,-0.0417,-0.0524,-0.0548,-0.0505,-0.0528,-0.0528,-0.0519,-0.0609,-0.0609,-0.0608,-0.0608,-0.0608,0,0.0126,0.0143,0.0177,0.0188,0.0196,0.0207,0.0217,0.021,0.0209,0.0163,0.0153,0.004,-0.0031,-0.0224,-0.0353,-0.053,-0.0533,-0.0593,-0.0551,-0.0519,-0.0539,-0.053,-0.0522,-0.0608,-0.0608,-0.0608,-0.0608,0,0.0107,0.0122,0.0138,0.0181,0.02,0.0224,0.0241,0.0248,0.0247,0.0218,0.0182,0.0082,-0.0047,-0.0202,-0.0338,-0.0455,-0.0561,-0.0591,-0.0592,-0.0553,-0.0519,-0.0536,-0.0529,-0.0607,-0.0607,-0.0607,-0.0607,0,0.0071,0.0083,0.012,0.0159,0.0194,0.0242,0.0248,0.0265,0.027,0.0239,0.0229,0.0096,0.0013,-0.0163,-0.0286,-0.0405,-0.0429,-0.0448,-0.0457,-0.0459,-0.0366,-0.0298,-0.0344,0,0,0,0,0,0.0033,0.0065,0.0098,0.0153,0.02,0.023,0.027,0.028,0.0289,0.0279,0.026,0.0152,-0.0025,-0.0112,-0.0225,-0.0297,-0.0464,-0.0432,-0.0494,-0.0603,-0.0604,-0.0514,0,0,0,0,0,0,0.0004,0.0034,0.009,0.0159,0.0196,0.0253,0.0284,0.0289,0.0286,0.0275,0.0179,0.0137,-0.0048,0.0035,-0.0226,-0.0265,-0.0313,-0.0522,-0.0524,-0.0602,-0.0603,-0.0604,-0.0512,0,0,0,0,0]}]]